Location: Deurze
(52.9838°N, 6.6090°E)
Time: 19:21:53
(UTC+00:00)

Cosmos 1953 Rocket - Pass Details

Date: 11 March 2026
Orbit: 599 x 626 km, 82.5° (Epoch: 20 April)

Event Time Altitude Azimuth Distance (km) Brightness Sun altitude
Rises 18:30:08 0° 165° (SSE) 2,836 6.7 -9.8°
Reaches altitude 10° 18:32:27 10° 156° (SSE) 1,938 5.8 -10.1°
Maximum altitude 18:36:20 34° 91° (E) 992 4.1 -10.7°
Drops below altitude 10° 18:40:14 10° 26° (NNE) 1,957 6.0 -11.3°
Sets 18:42:36 0° 18° (NNE) 2,868 6.9 -11.6°
